Вернуться в каталог

ONEWEB-0281

АктивенСвязьPO
NORAD 48999·PAYLOAD·🇬🇧 United Kingdom

Запущен Jul 1, 2021 с Vostochny Cosmodrome

Loading…

Ближайшие Пролёты (ближайшие 24 часа)

TLE

СвежийSource: CelesTrak SupGP

Эпоха: Sep 14, 2026, 21:38 UTC

1 48999C 21060AJ  26257.90189074 -.00002097  00000+0 -54921-2 0  2577
2 48999  87.9149 210.9600 0002163  83.4580 310.4998 13.16594430    18

Отслеживайте ONEWEB-0281 в реальном времени с AllMySat

Download on the App Store